CFG5WR EGKK-EDDF

Flight info

Callsign CFG5WR
Flight time 1h 2m
Altitude 35000
Route DVR UL9 KONAN UL607 KOK DCT REMBA UL607 SPI T180 NIVNU/N0408F230 T847 IMCOM IMCOM1B
Aircraft A320/M-SDE3FGHIRWY/LB1

Departure

Time 2026-05-06 18:29
Airport London Gatwick Airport (EGKK)

Arrival

Time 2026-05-06 19:31
Airport Frankfurt Main Airport (EDDF)
Time Latitude Longitude Altitude Speed Heading
2026-05-06 17:48 51.15828 -0.17736 207 ft 0 kts 347°
2026-05-06 17:48 51.15810 -0.17754 212 ft 0 kts 349°
2026-05-06 18:07 51.15788 -0.17746 211 ft 4 kts 346°
2026-05-06 18:07 51.15762 -0.17735 206 ft 4 kts 343°
2026-05-06 18:07 51.15744 -0.17727 216 ft 4 kts 346°
2026-05-06 18:08 51.15759 -0.17733 206 ft 4 kts 346°
2026-05-06 18:08 51.15764 -0.17735 216 ft 4 kts 345°
2026-05-06 18:08 51.15740 -0.17721 214 ft 4 kts 311°
2026-05-06 18:08 51.15737 -0.17694 212 ft 4 kts 253°
2026-05-06 18:09 51.15740 -0.17672 206 ft 0 kts 257°
2026-05-06 18:13 51.15737 -0.17695 212 ft 3 kts 255°
2026-05-06 18:13 51.15731 -0.17727 213 ft 6 kts 255°
2026-05-06 18:13 51.15711 -0.17865 204 ft 16 kts 257°
2026-05-06 18:13 51.15688 -0.18032 211 ft 15 kts 257°
2026-05-06 18:14 51.15667 -0.18182 209 ft 13 kts 257°
2026-05-06 18:14 51.15604 -0.18230 210 ft 11 kts 167°
2026-05-06 18:14 51.15536 -0.18204 208 ft 9 kts 167°
2026-05-06 18:14 51.15477 -0.18181 212 ft 8 kts 162°
2026-05-06 18:15 51.15427 -0.18157 211 ft 7 kts 166°
2026-05-06 18:15 51.15383 -0.18140 208 ft 7 kts 167°
2026-05-06 18:15 51.15309 -0.18116 208 ft 15 kts 169°
2026-05-06 18:15 51.15215 -0.18130 213 ft 13 kts 230°
2026-05-06 18:16 51.15191 -0.18252 204 ft 11 kts 257°
2026-05-06 18:16 51.15180 -0.18370 204 ft 10 kts 260°
2026-05-06 18:16 51.15163 -0.18488 207 ft 14 kts 257°
2026-05-06 18:16 51.15140 -0.18658 206 ft 15 kts 258°
2026-05-06 18:17 51.15118 -0.18815 208 ft 14 kts 257°
2026-05-06 18:17 51.15098 -0.18956 208 ft 12 kts 257°
2026-05-06 18:17 51.15081 -0.19079 209 ft 11 kts 258°
2026-05-06 18:17 51.15067 -0.19189 206 ft 10 kts 258°
2026-05-06 18:18 51.15048 -0.19337 204 ft 16 kts 258°
2026-05-06 18:18 51.15017 -0.19557 207 ft 25 kts 256°
2026-05-06 18:18 51.14978 -0.19836 207 ft 26 kts 258°
2026-05-06 18:18 51.14939 -0.20131 215 ft 28 kts 258°
2026-05-06 18:19 51.14896 -0.20437 210 ft 28 kts 257°
2026-05-06 18:19 51.14858 -0.20704 203 ft 19 kts 257°
2026-05-06 18:19 51.14831 -0.20894 204 ft 13 kts 257°
2026-05-06 18:19 51.14812 -0.21028 212 ft 12 kts 257°
2026-05-06 18:20 51.14794 -0.21147 211 ft 11 kts 246°
2026-05-06 18:20 51.14773 -0.21251 204 ft 10 kts 258°
2026-05-06 18:20 51.14761 -0.21349 204 ft 8 kts 258°
2026-05-06 18:20 51.14733 -0.21401 204 ft 4 kts 201°
2026-05-06 18:21 51.14731 -0.21402 204 ft 0 kts 201°
2026-05-06 18:22 51.14712 -0.21402 204 ft 4 kts 178°
2026-05-06 18:22 51.14676 -0.21380 207 ft 4 kts 142°
2026-05-06 18:22 51.14675 -0.21378 207 ft 0 kts 140°
2026-05-06 18:24 51.14674 -0.21377 204 ft 1 kts 140°
2026-05-06 18:24 51.14635 -0.21333 207 ft 7 kts 158°
2026-05-06 18:24 51.14621 -0.21327 204 ft 0 kts 168°
2026-05-06 18:26 51.14589 -0.21315 207 ft 9 kts 163°
2026-05-06 18:26 51.14522 -0.21222 205 ft 15 kts 113°
2026-05-06 18:26 51.14522 -0.21156 202 ft 0 kts 78°
2026-05-06 18:28 51.14530 -0.21102 207 ft 29 kts 77°
2026-05-06 18:28 51.14628 -0.20381 208 ft 100 kts 77°
2026-05-06 18:28 51.14827 -0.18995 224 ft 152 kts 77°
2026-05-06 18:28 51.14975 -0.17906 595 ft 151 kts 77°
2026-05-06 18:29 51.15270 -0.15728 1535 ft 152 kts 75°
2026-05-06 18:29 51.15499 -0.14063 2139 ft 158 kts 74°
2026-05-06 18:29 51.15754 -0.12236 2431 ft 180 kts 75°
2026-05-06 18:29 51.16043 -0.10159 2729 ft 203 kts 74°
2026-05-06 18:30 51.16253 -0.08652 2931 ft 219 kts 75°
2026-05-06 18:30 51.16599 -0.06146 3308 ft 243 kts 76°
2026-05-06 18:30 51.16897 -0.03380 3935 ft 260 kts 86°
2026-05-06 18:30 51.16864 -0.00457 4822 ft 266 kts 90°
2026-05-06 18:31 51.16805 0.02517 5660 ft 271 kts 91°
2026-05-06 18:31 51.16743 0.05505 6564 ft 274 kts 91°
2026-05-06 18:31 51.16682 0.08557 7405 ft 278 kts 91°
2026-05-06 18:31 51.16622 0.11677 8211 ft 284 kts 90°
2026-05-06 18:32 51.16562 0.14854 9027 ft 289 kts 90°
2026-05-06 18:32 51.16525 0.18085 9858 ft 293 kts 89°
2026-05-06 18:32 51.16528 0.21361 10590 ft 297 kts 88°
2026-05-06 18:32 51.16544 0.24679 11339 ft 302 kts 88°
2026-05-06 18:33 51.16561 0.28049 12101 ft 305 kts 88°
2026-05-06 18:33 51.16575 0.31467 12866 ft 309 kts 88°
2026-05-06 18:33 51.16586 0.34907 13604 ft 313 kts 89°
2026-05-06 18:33 51.16592 0.38401 14280 ft 317 kts 89°
2026-05-06 18:34 51.16594 0.41883 14941 ft 320 kts 89°
2026-05-06 18:34 51.16594 0.45451 15599 ft 323 kts 89°
2026-05-06 18:34 51.16595 0.49050 16246 ft 327 kts 89°
2026-05-06 18:34 51.16596 0.52800 16421 ft 348 kts 89°
2026-05-06 18:35 51.16598 0.56761 16559 ft 367 kts 89°
2026-05-06 18:35 51.16595 0.60955 16818 ft 387 kts 90°
2026-05-06 18:35 51.16587 0.65288 17276 ft 394 kts 90°
2026-05-06 18:35 51.16579 0.69698 18011 ft 400 kts 90°
2026-05-06 18:36 51.16571 0.74161 18717 ft 404 kts 90°
2026-05-06 18:36 51.16562 0.78605 19374 ft 408 kts 90°
2026-05-06 18:36 51.16550 0.83147 20026 ft 412 kts 90°
2026-05-06 18:36 51.16533 0.87731 20602 ft 415 kts 90°
2026-05-06 18:37 51.16514 0.92349 21110 ft 418 kts 90°
2026-05-06 18:37 51.16493 0.97000 21619 ft 422 kts 90°
2026-05-06 18:37 51.16469 1.01691 22113 ft 424 kts 90°
2026-05-06 18:37 51.16446 1.06406 22589 ft 427 kts 90°
2026-05-06 18:38 51.16423 1.11158 23056 ft 430 kts 90°
2026-05-06 18:38 51.16399 1.15940 23508 ft 433 kts 90°
2026-05-06 18:38 51.16373 1.20745 23884 ft 435 kts 90°
2026-05-06 18:38 51.16343 1.25585 24252 ft 438 kts 90°
2026-05-06 18:39 51.16307 1.30445 24619 ft 440 kts 91°
2026-05-06 18:39 51.16266 1.35332 24979 ft 442 kts 91°
2026-05-06 18:39 51.16161 1.40235 25335 ft 444 kts 93°
2026-05-06 18:40 51.15699 1.50083 26002 ft 448 kts 95°
2026-05-06 18:40 51.15411 1.55044 26340 ft 450 kts 95°
2026-05-06 18:40 51.15121 1.60017 26660 ft 453 kts 95°
2026-05-06 18:40 51.14841 1.65044 26979 ft 454 kts 95°
2026-05-06 18:41 51.14580 1.70073 27299 ft 456 kts 95°
2026-05-06 18:41 51.14332 1.75124 27597 ft 458 kts 95°
2026-05-06 18:41 51.14088 1.80188 27896 ft 460 kts 95°
2026-05-06 18:41 51.13840 1.85289 28172 ft 462 kts 95°
2026-05-06 18:42 51.13585 1.90394 28436 ft 464 kts 95°
2026-05-06 18:42 51.13320 1.95515 28713 ft 465 kts 95°
2026-05-06 18:42 51.12973 2.00641 28967 ft 466 kts 99°
2026-05-06 18:42 51.12367 2.05713 29213 ft 467 kts 103°
2026-05-06 18:43 51.11578 2.10733 29513 ft 467 kts 106°
2026-05-06 18:43 51.10711 2.15650 29855 ft 466 kts 107°
2026-05-06 18:43 51.09813 2.20673 30180 ft 465 kts 106°
2026-05-06 18:43 51.08976 2.25570 30467 ft 464 kts 105°
2026-05-06 18:44 51.08175 2.30558 30747 ft 464 kts 104°
2026-05-06 18:44 51.07413 2.35546 31033 ft 463 kts 104°
2026-05-06 18:44 51.06675 2.40528 31320 ft 463 kts 104°
2026-05-06 18:44 51.05942 2.45504 31584 ft 463 kts 104°
2026-05-06 18:45 51.05200 2.50485 31870 ft 462 kts 104°
2026-05-06 18:45 51.04449 2.55449 32171 ft 461 kts 104°
2026-05-06 18:45 51.03689 2.60396 32433 ft 461 kts 104°
2026-05-06 18:45 51.02931 2.65279 32714 ft 461 kts 104°
2026-05-06 18:46 51.02152 2.70268 33028 ft 460 kts 104°
2026-05-06 18:46 51.01389 2.75129 33298 ft 459 kts 104°
2026-05-06 18:46 51.00613 2.80061 33579 ft 459 kts 104°
2026-05-06 18:46 50.99842 2.84965 33913 ft 458 kts 104°
2026-05-06 18:47 50.99071 2.89863 34132 ft 458 kts 104°
2026-05-06 18:47 50.98295 2.94765 34348 ft 458 kts 104°
2026-05-06 18:47 50.97517 2.99665 34592 ft 458 kts 104°
2026-05-06 18:47 50.96739 3.04573 34771 ft 458 kts 104°
2026-05-06 18:48 50.95958 3.09480 34918 ft 459 kts 104°
2026-05-06 18:48 50.94392 3.19330 34940 ft 461 kts 104°
2026-05-06 18:49 50.92812 3.29189 34938 ft 460 kts 105°
2026-05-06 18:49 50.91213 3.38997 34933 ft 459 kts 105°
2026-05-06 18:50 50.89619 3.48803 34928 ft 459 kts 105°
2026-05-06 18:50 50.88017 3.58610 34933 ft 460 kts 105°
2026-05-06 18:51 50.86412 3.68346 34923 ft 459 kts 105°
2026-05-06 18:51 50.84791 3.78132 34934 ft 459 kts 105°
2026-05-06 18:52 50.83165 3.87903 34933 ft 459 kts 105°
2026-05-06 18:52 50.81529 3.97686 34929 ft 458 kts 105°
2026-05-06 18:53 50.79894 4.07366 34929 ft 458 kts 105°
2026-05-06 18:53 50.78240 4.17126 34927 ft 458 kts 105°
2026-05-06 18:54 50.76584 4.26825 34929 ft 459 kts 106°
2026-05-06 18:54 50.74914 4.36552 34935 ft 459 kts 106°
2026-05-06 18:55 50.73241 4.46264 34934 ft 459 kts 106°
2026-05-06 18:55 50.71555 4.55986 34939 ft 459 kts 106°
2026-05-06 18:56 50.69868 4.65698 34937 ft 459 kts 106°
2026-05-06 18:56 50.68171 4.75415 34918 ft 459 kts 106°
2026-05-06 18:57 50.66460 4.85116 34925 ft 459 kts 107°
2026-05-06 18:57 50.64742 4.94811 34917 ft 459 kts 107°
2026-05-06 18:58 50.63021 5.04490 34925 ft 459 kts 107°
2026-05-06 18:58 50.61296 5.14115 34915 ft 459 kts 107°
2026-05-06 18:59 50.59552 5.23785 34914 ft 458 kts 107°
2026-05-06 18:59 50.57810 5.33444 34918 ft 458 kts 107°
2026-05-06 19:00 50.56067 5.43046 34917 ft 458 kts 107°
2026-05-06 19:00 50.54300 5.52693 34913 ft 458 kts 107°
2026-05-06 19:01 50.52529 5.62323 34591 ft 457 kts 107°
2026-05-06 19:01 50.51645 5.67139 34352 ft 456 kts 107°
2026-05-06 19:01 50.50775 5.71859 34117 ft 455 kts 107°
2026-05-06 19:01 50.49891 5.76629 33876 ft 455 kts 107°
2026-05-06 19:02 50.49001 5.81405 33603 ft 455 kts 107°
2026-05-06 19:02 50.48107 5.86172 33318 ft 455 kts 107°
2026-05-06 19:02 50.47212 5.90942 33053 ft 455 kts 107°
2026-05-06 19:02 50.46318 5.95697 32770 ft 455 kts 107°
2026-05-06 19:03 50.45422 6.00469 32499 ft 455 kts 107°
2026-05-06 19:03 50.44527 6.05229 32225 ft 455 kts 108°
2026-05-06 19:03 50.43631 6.09989 31959 ft 454 kts 108°
2026-05-06 19:03 50.42745 6.14690 31570 ft 454 kts 107°
2026-05-06 19:04 50.41843 6.19448 30588 ft 456 kts 108°
2026-05-06 19:04 50.40932 6.24125 30364 ft 440 kts 109°
2026-05-06 19:04 50.40037 6.28628 30264 ft 424 kts 109°
2026-05-06 19:04 50.39148 6.33030 29874 ft 428 kts 109°
2026-05-06 19:05 50.38229 6.37540 28560 ft 438 kts 109°
2026-05-06 19:05 50.37294 6.42138 27279 ft 446 kts 109°
2026-05-06 19:05 50.36357 6.46766 26051 ft 453 kts 109°
2026-05-06 19:05 50.35405 6.51475 25320 ft 450 kts 109°
2026-05-06 19:06 50.34470 6.56134 25048 ft 448 kts 108°
2026-05-06 19:06 50.33535 6.60801 24857 ft 448 kts 109°
2026-05-06 19:06 50.32599 6.65444 24881 ft 448 kts 109°
2026-05-06 19:06 50.31650 6.70119 24850 ft 448 kts 109°
2026-05-06 19:07 50.30709 6.74729 23975 ft 449 kts 109°
2026-05-06 19:07 50.30072 6.77833 23161 ft 455 kts 109°
2026-05-06 19:07 50.28773 6.84146 22105 ft 449 kts 109°
2026-05-06 19:07 50.27830 6.88729 21834 ft 437 kts 109°
2026-05-06 19:08 50.26916 6.93168 21563 ft 433 kts 109°
2026-05-06 19:08 50.25995 6.97644 20577 ft 436 kts 109°
2026-05-06 19:08 50.25059 7.02180 19722 ft 438 kts 109°
2026-05-06 19:08 50.24132 7.06670 19192 ft 431 kts 109°
2026-05-06 19:09 50.23216 7.11102 18638 ft 426 kts 109°
2026-05-06 19:09 50.22306 7.15488 18118 ft 421 kts 109°
2026-05-06 19:09 50.21402 7.19811 17556 ft 416 kts 109°
2026-05-06 19:09 50.20508 7.24080 17054 ft 411 kts 109°
2026-05-06 19:10 50.19622 7.28298 16539 ft 406 kts 109°
2026-05-06 19:10 50.18747 7.32459 16012 ft 402 kts 109°
2026-05-06 19:10 50.17881 7.36581 15475 ft 398 kts 109°
2026-05-06 19:10 50.17021 7.40673 14944 ft 395 kts 109°
2026-05-06 19:11 50.16166 7.44722 14381 ft 392 kts 109°
2026-05-06 19:11 50.15325 7.48700 13847 ft 390 kts 109°
2026-05-06 19:11 50.14475 7.52718 13210 ft 388 kts 110°
2026-05-06 19:11 50.13630 7.56691 12626 ft 385 kts 109°
2026-05-06 19:12 50.12788 7.60633 12030 ft 382 kts 109°
2026-05-06 19:12 50.11955 7.64540 11430 ft 379 kts 109°
2026-05-06 19:12 50.10992 7.68329 10971 ft 373 kts 118°
2026-05-06 19:12 50.10104 7.70676 10851 ft 372 kts 126°
2026-05-06 19:13 50.08154 7.75058 10847 ft 372 kts 126°
2026-05-06 19:13 50.06688 7.78366 10847 ft 372 kts 126°
2026-05-06 19:13 50.05698 7.80601 10835 ft 370 kts 126°
2026-05-06 19:13 50.04239 7.83888 10842 ft 369 kts 126°
2026-05-06 19:14 50.02798 7.87129 10849 ft 369 kts 126°
2026-05-06 19:14 50.01541 7.90617 10853 ft 371 kts 114°
2026-05-06 19:14 50.00828 7.94472 10849 ft 373 kts 100°
2026-05-06 19:14 50.00704 7.98502 10850 ft 374 kts 86°
2026-05-06 19:15 50.01184 8.02474 10853 ft 375 kts 72°
2026-05-06 19:15 50.02099 8.06271 10845 ft 375 kts 69°
2026-05-06 19:15 50.03035 8.10062 10839 ft 372 kts 69°
2026-05-06 19:15 50.03930 8.13726 10848 ft 352 kts 69°
2026-05-06 19:16 50.04773 8.17205 10854 ft 334 kts 69°
2026-05-06 19:16 50.05562 8.20473 10858 ft 318 kts 69°
2026-05-06 19:16 50.06330 8.23652 10798 ft 309 kts 69°
2026-05-06 19:16 50.07085 8.26781 10374 ft 310 kts 70°
2026-05-06 19:17 50.07843 8.29924 9992 ft 309 kts 70°
2026-05-06 19:17 50.08594 8.33040 9760 ft 305 kts 70°
2026-05-06 19:17 50.09339 8.36129 9657 ft 304 kts 69°
2026-05-06 19:17 50.10083 8.39209 9561 ft 304 kts 69°
2026-05-06 19:18 50.10823 8.42278 9256 ft 301 kts 69°
2026-05-06 19:18 50.11555 8.45322 8886 ft 299 kts 70°
2026-05-06 19:18 50.12284 8.48364 8828 ft 299 kts 70°
2026-05-06 19:18 50.13003 8.51367 8835 ft 300 kts 70°
2026-05-06 19:19 50.13739 8.54454 8819 ft 299 kts 70°
2026-05-06 19:19 50.14459 8.57483 8446 ft 297 kts 70°
2026-05-06 19:19 50.15169 8.60466 8044 ft 295 kts 70°
2026-05-06 19:19 50.15880 8.63464 7631 ft 293 kts 70°
2026-05-06 19:20 50.16588 8.66446 7241 ft 292 kts 70°
2026-05-06 19:20 50.17289 8.69405 6853 ft 290 kts 70°
2026-05-06 19:20 50.17986 8.72350 6470 ft 288 kts 70°
2026-05-06 19:20 50.18680 8.75275 6079 ft 286 kts 70°
2026-05-06 19:21 50.19369 8.78177 5691 ft 284 kts 70°
2026-05-06 19:21 50.20050 8.81057 5298 ft 282 kts 70°
2026-05-06 19:21 50.20722 8.83908 5017 ft 278 kts 70°
2026-05-06 19:21 50.21393 8.86756 4991 ft 280 kts 70°
2026-05-06 19:22 50.22065 8.89611 4995 ft 280 kts 70°
2026-05-06 19:22 50.22730 8.92440 4990 ft 270 kts 70°
2026-05-06 19:22 50.23354 8.95101 4991 ft 253 kts 70°
2026-05-06 19:22 50.23664 8.97713 4991 ft 247 kts 96°
2026-05-06 19:23 50.23119 9.00196 4994 ft 242 kts 129°
2026-05-06 19:23 50.21856 9.01828 5000 ft 235 kts 161°
2026-05-06 19:23 50.20258 9.02145 4998 ft 229 kts 193°
2026-05-06 19:23 50.18856 9.01121 4999 ft 226 kts 219°
2026-05-06 19:24 50.17655 8.99529 4995 ft 226 kts 223°
2026-05-06 19:24 50.16491 8.97867 4995 ft 226 kts 224°
2026-05-06 19:24 50.15345 8.96217 4991 ft 218 kts 224°
2026-05-06 19:24 50.14362 8.94526 4993 ft 206 kts 242°
2026-05-06 19:25 50.13825 8.92475 5000 ft 204 kts 250°
2026-05-06 19:25 50.13357 8.90451 5002 ft 198 kts 250°
2026-05-06 19:25 50.12891 8.88457 4997 ft 195 kts 250°
2026-05-06 19:25 50.12427 8.86480 5030 ft 194 kts 250°
2026-05-06 19:26 50.11969 8.84535 4825 ft 185 kts 250°
2026-05-06 19:26 50.11537 8.82700 4601 ft 178 kts 250°
2026-05-06 19:26 50.11114 8.80905 4385 ft 174 kts 250°
2026-05-06 19:26 50.10698 8.79142 4114 ft 173 kts 251°
2026-05-06 19:27 50.10282 8.77380 3879 ft 172 kts 251°
2026-05-06 19:27 50.09872 8.75646 3626 ft 172 kts 251°
2026-05-06 19:27 50.09458 8.73892 3375 ft 173 kts 251°
2026-05-06 19:27 50.09041 8.72130 3134 ft 173 kts 251°
2026-05-06 19:28 50.08627 8.70375 2891 ft 173 kts 252°
2026-05-06 19:28 50.08215 8.68622 2606 ft 171 kts 252°
2026-05-06 19:28 50.07813 8.66920 2342 ft 167 kts 253°
2026-05-06 19:28 50.07410 8.65214 2133 ft 168 kts 252°
2026-05-06 19:29 50.07003 8.63524 1892 ft 161 kts 252°
2026-05-06 19:29 50.06635 8.61984 1628 ft 147 kts 253°
2026-05-06 19:29 50.06288 8.60540 1413 ft 140 kts 253°
2026-05-06 19:29 50.05958 8.59142 1190 ft 135 kts 252°
2026-05-06 19:30 50.05636 8.57774 1023 ft 134 kts 252°
2026-05-06 19:30 50.05310 8.56413 855 ft 134 kts 251°
2026-05-06 19:30 50.04985 8.55055 666 ft 134 kts 251°
2026-05-06 19:30 50.04660 8.53697 464 ft 134 kts 251°
2026-05-06 19:31 50.04344 8.52372 345 ft 120 kts 251°
2026-05-06 19:31 50.04114 8.51401 331 ft 71 kts 248°
2026-05-06 19:31 50.03897 8.50541 323 ft 38 kts 244°
2026-05-06 19:32 50.03747 8.50259 319 ft 22 kts 218°
2026-05-06 19:32 50.03647 8.50215 322 ft 11 kts 135°
2026-05-06 19:32 50.03639 8.50321 323 ft 11 kts 75°
2026-05-06 19:32 50.03664 8.50430 327 ft 12 kts 70°
2026-05-06 19:33 50.03699 8.50580 328 ft 17 kts 70°
2026-05-06 19:33 50.03741 8.50760 329 ft 17 kts 70°
2026-05-06 19:33 50.03781 8.50917 331 ft 14 kts 68°
2026-05-06 19:33 50.03814 8.51048 333 ft 12 kts 69°
2026-05-06 19:34 50.03841 8.51161 334 ft 11 kts 70°
2026-05-06 19:34 50.03874 8.51304 333 ft 18 kts 70°
2026-05-06 19:34 50.03925 8.51518 334 ft 24 kts 69°
2026-05-06 19:34 50.03987 8.51772 336 ft 28 kts 70°
2026-05-06 19:35 50.04060 8.52080 339 ft 32 kts 69°
2026-05-06 19:35 50.04138 8.52417 346 ft 34 kts 70°
2026-05-06 19:35 50.04218 8.52747 358 ft 31 kts 70°
2026-05-06 19:35 50.04289 8.53046 362 ft 28 kts 70°
2026-05-06 19:36 50.04345 8.53278 368 ft 20 kts 70°
2026-05-06 19:36 50.04385 8.53445 373 ft 13 kts 72°
2026-05-06 19:36 50.04399 8.53563 375 ft 10 kts 83°
2026-05-06 19:36 50.04407 8.53667 375 ft 10 kts 84°
2026-05-06 19:37 50.04419 8.53859 375 ft 24 kts 96°
2026-05-06 19:37 50.04435 8.54115 375 ft 24 kts 81°
2026-05-06 19:37 50.04451 8.54333 374 ft 16 kts 84°
2026-05-06 19:37 50.04454 8.54444 370 ft 16 kts 94°
2026-05-06 19:38 50.04424 8.54609 365 ft 8 kts 119°
2026-05-06 19:38 50.04390 8.54682 362 ft 6 kts 131°
2026-05-06 19:38 50.04348 8.54737 359 ft 7 kts 144°
2026-05-06 19:38 50.04297 8.54782 356 ft 10 kts 159°
2026-05-06 19:39 50.04217 8.54828 356 ft 13 kts 160°
2026-05-06 19:39 50.04134 8.54873 356 ft 9 kts 160°
2026-05-06 19:39 50.04098 8.54894 350 ft 4 kts 160°
2026-05-06 19:39 50.04075 8.54907 351 ft 3 kts 160°
2026-05-06 19:40 50.04071 8.54909 356 ft 0 kts 160°